Starlink 35391

operational
NORAD ID: 66616 Int'l Des: 2025-270 Owner: SPXS Country: US Constellation: starlink
LEOCIRCULAR

关于 Starlink 35391

正在加载描述...

实时位置

正在加载3D地球...

即将过境

高度历史

Altitude vs Time

uPlot chart will show altitude changes over time

两行轨道根数

1 66616U 25270AE 26062.15501548 .00032342 00000-0 11793-2 0 9993
2 66616 42.9959 93.3184 0001426 264.1239 95.9450 15.27590691 16816
Epoch: Mar 3, 2026 • Age: 38 hours

当前状态

高度 493.2 km
速度 7.62 km/s
星下点 -38.22°S, 16.35°E
发射日期 Nov 22, 2025
运行时间 0.2 years
类型 internet

技术详情

分类 Payload
质量 575.00 kg
干质量 530.00 kg
总质量 575.00 kg
长度 0.30 m
直径 4.10 m
跨度 29.00 m
形状 Box + pan
制造商 SPXS
平台类型 Starlink V2MO
阶段状态 In Orbit
所有者/国家 SPXS/US

大型星座

Loading constellations...